[[{"header":{"parameterUnit":"m.s-1","parameterCategory":1,"la1":30.2991,"la2":30.254,"lo1":-89.0895,"lo2":-89.0444,"dy":0.0017,"dx":0.0017,"nx":28,"ny":28,"refTime":"2024-03-02T09:00:00:Z","depth":0,"parameterNumber":2,"parameterNumberName":"U-component_of_WINDS"},"data":[0,0,0,0,0,0,0,0,0,0,0,0,0,0,0,0,0,0,0,0,0,0,0,0,0,0,0,0,0,0,0,0,0,0,0,0,0,0,0,0,0,0,0,0,0,0,0,0,0,0,0,0,0,0,0,0,0,0,-3.1919,-3.1919,0,-3.1898,-3.1898,-3.1897,-3.1835,-3.1833,-3.1832,-3.183,-3.1811,-3.1812,-3.1813,0,0,0,0,0,0,0,0,0,0,0,0,0,-3.1911,-3.1911,-3.1919,-3.1919,-3.1919,-3.1898,-3.1898,-3.1897,-3.1835,-3.1833,-3.1831,-3.183,-3.1811,-3.1812,-3.1813,0,0,0,0,0,0,0,0,0,0,0,0,0,-3.1905,-3.1912,-3.192,-3.1885,-3.1882,-3.1898,-3.1898,-3.1897,-3.1835,-3.1833,-3.1831,-3.1829,-3.181,-3.1812,-3.1813,-3.1861,0,0,-3.1816,-3.1817,0,0,0,0,0,0,0,0,-3.1905,-3.1905,-3.189,-3.1888,-3.1884,-3.1867,-3.1887,-3.1885,-3.1836,-3.1853,-3.183,-3.1828,-3.1831,-3.1831,-3.1831,-3.186,-3.1859,-3.1816,-3.1817,-3.1818,-3.1818,0,0,0,0,0,0,0,-3.1906,-3.1906,-3.1911,-3.189,-3.1886,-3.1872,-3.1869,-3.1887,-3.1854,-3.1851,-3.1847,-3.1845,-3.1829,-3.183,-3.183,-3.1859,-3.1816,-3.1817,-3.1818,-3.1818,-3.1929,-3.1931,0,0,0,0,0,0,-3.1911,-3.1906,-3.1912,-3.191,-3.189,-3.1874,-3.187,-3.1874,-3.1854,-3.1849,-3.1847,-3.1842,-3.1829,-3.1829,-3.1829,-3.1885,-3.1818,-3.1819,-3.1819,-3.1927,-3.1929,-3.1932,0,0,0,0,0,0,-3.1911,-3.1912,-3.1912,-3.1907,-3.1906,-3.1876,-3.1881,-3.1875,-3.1876,-3.185,-3.1844,-3.1853,-3.1828,-3.1828,-3.1854,-3.1884,-3.1819,-3.182,-3.1924,-3.1928,-3.1931,-3.1997,0,0,0,0,0,0,-3.1911,-3.1912,-3.1929,-3.1908,-3.1907,-3.1936,-3.1883,-3.1876,-3.1878,-3.1871,-3.1855,-3.185,-3.1826,-3.1853,-3.1855,-3.1884,-3.1821,-3.1921,-3.1926,-3.193,-3.1992,-3.2002,-3.2011,0,0,0,0,0,-3.191,-3.1948,-3.193,-3.1931,-3.1927,-3.1938,-3.1937,-3.1908,-3.188,-3.1898,-3.1882,-3.1851,-3.1881,-3.1856,-3.1858,-3.1888,-3.1919,-3.1924,-3.1929,-3.1988,-3.2,-3.2011,0,0,0,0,0,0,-3.1974,-3.1945,-3.1924,-3.1956,-3.195,-3.1927,-3.1948,-3.1922,-3.1924,-3.1918,-3.1883,-3.1879,-3.1911,-3.1902,-3.1875,-3.1935,-3.1895,-3.1901,-3.1939,-3.195,-3.196,-3.1961,-3.1822,0,0,0,0,0,-3.1991,-3.2002,-3.1976,-3.2007,-3.2005,-3.1978,-3.1981,-3.1959,-3.1952,-3.1949,-3.1935,-3.193,-3.1938,-3.1944,-3.195,-3.1992,-3.1988,-3.2014,-3.2023,-3.2031,-3.2036,-3.2059,-3.207,-3.1949,-3.1948,-3.1948,0,0,-3.2028,-3.2014,-3.2022,-3.202,-3.2012,-3.2025,-3.1976,-3.1991,-3.2,-3.1952,-3.1975,-3.1965,-3.1957,-3.1992,-3.2006,-3.1985,-3.2069,-3.2038,-3.2044,-3.2045,-3.2065,-3.2077,-3.2087,-3.1952,-3.1951,-3.1951,0,0,-3.21,-3.2091,-3.2115,-3.2109,-3.2099,-3.2081,-3.2087,-3.2069,-3.206,-3.2083,-3.2048,-3.206,-3.2074,-3.2071,-3.2071,-3.2146,-3.2118,-3.2149,-3.2198,-3.2221,-3.223,-3.2239,-3.2266,-3.2276,-3.2155,-3.2155,-3.2155,0,-3.2147,-3.2163,-3.2132,-3.2149,-3.215,-3.2107,-3.2133,-3.213,-3.2122,-3.2125,-3.2102,-3.2121,-3.2112,-3.2146,-3.2164,-3.2166,-3.2173,-3.215,-3.2231,-3.2239,-3.2247,-3.2272,-3.2283,-3.2159,-3.2158,-3.2158,-3.2157,0,-3.2222,-3.2234,-3.2256,-3.2249,-3.2253,-3.2275,-3.2248,-3.2256,-3.2235,-3.222,-3.2246,-3.2235,-3.2239,-3.2246,-3.2225,-3.2277,-3.2265,-3.2238,-3.2196,-3.2263,-3.2286,-3.2296,-3.2164,-3.2163,-3.2162,-3.2161,0,0,-3.233,-3.2308,-3.2316,-3.2314,-3.2301,-3.231,-3.2332,-3.2335,-3.2343,-3.2341,-3.2358,-3.2373,-3.2348,-3.2349,-3.2328,-3.2348,-3.241,-3.2319,-3.2318,-3.2336,-3.2467,-3.2487,-3.2499,-3.2392,-3.2394,-3.2395,-3.2468,0,-3.2399,-3.2432,-3.2406,-3.2444,-3.2456,-3.2418,-3.2437,-3.2432,-3.2419,-3.2429,-3.2416,-3.2427,-3.2393,-3.2393,-3.2412,-3.2398,-3.2435,-3.2393,-3.2409,-3.241,-3.2411,-3.2511,-3.2531,-3.26,-3.2477,-3.2478,-3.248,0,-3.2482,-3.2483,-3.2523,-3.2509,-3.2513,-3.253,-3.2532,-3.2541,-3.2536,-3.2526,-3.2528,-3.2503,-3.2525,-3.2487,-3.2517,-3.2489,-3.2495,-3.249,-3.2492,-3.2491,-3.2448,-3.2513,-3.2622,-3.2632,-3.2494,-3.2493,-3.2492,0,-3.2557,-3.2569,-3.2594,-3.2593,-3.2578,-3.2591,-3.2585,-3.2578,-3.2583,-3.2586,-3.2588,-3.2594,-3.2597,-3.2604,-3.2582,-3.2556,-3.2616,-3.2575,-3.2609,-3.261,-3.2622,-3.2621,-3.2733,-3.2628,-3.2627,-3.2627,-3.2627,0,-3.2635,-3.2661,-3.2628,-3.2643,-3.2672,-3.2643,-3.2673,-3.2664,-3.2659,-3.2673,-3.2641,-3.2656,-3.2627,-3.2639,-3.2623,-3.2651,-3.2653,-3.2647,-3.2642,-3.2649,-3.2649,-3.2651,-3.2645,-3.263,-3.2629,-3.2629,-3.2628,0,-3.2722,-3.2701,-3.2726,-3.2711,-3.2707,-3.2729,-3.2716,-3.2731,-3.2718,-3.2737,-3.274,-3.2719,-3.2733,-3.2712,-3.2723,-3.2712,-3.2752,-3.274,-3.2753,-3.2749,-3.2784,-3.2781,-3.29,-3.2914,-3.2801,-3.2802,-3.2803,0,-3.2773,-3.2792,-3.2778,-3.2785,-3.2781,-3.2793,-3.2798,-3.2772,-3.2779,-3.2776,-3.2792,-3.2802,-3.2809,-3.2833,-3.2819,-3.2829,-3.2817,-3.2858,-3.2817,-3.2825,-3.2817,-3.2816,-3.2818,-3.2865,-3.2867,-3.2868,-3.2869,0,-3.2864,-3.2854,-3.2861,-3.2866,-3.2872,-3.2875,-3.2875,-3.2883,-3.2856,-3.2866,-3.2878,-3.2884,-3.2896,-3.2907,-3.2914,-3.291,-3.2885,-3.2882,-3.289,-3.2897,-3.2903,-3.29,-3.2775,-3.2879,-3.2878,-3.2877,-3.2876,-3.2876,-3.2934,-3.295,-3.2943,-3.2953,-3.2951,-3.2953,-3.2966,-3.2955,-3.2965,-3.2972,-3.2957,-3.2974,-3.2972,-3.2978,-3.2977,-3.2991,-3.2973,-3.2985,-3.2988,-3.2991,-3.2997,-3.2902,-3.2993,-3.2992,-3.2992,-3.2992,-3.2991,0,-3.3024,-3.3019,-3.3028,-3.303,-3.3039,-3.3015,-3.3015,-3.3024,-3.3039,-3.3039,-3.3046,-3.3063,-3.3075,-3.3064,-3.3074,-3.3088,-3.3077,-3.3091,-3.3089,-3.3089,-3.3012,-3.3004,-3.31,-3.31,-3.31,-3.31,-3.31,-3.31,-3.3072,-3.3097,-3.3086,-3.3112,-3.3106,-3.3122,-3.3124,-3.3127,-3.3126,-3.3145,-3.3155,-3.3147,-3.3143,-3.3153,-3.3164,-3.3161,-3.3166,-3.3184,-3.3177,-3.3105,-3.3094,-3.3084,-3.3076,-3.3186,-3.3186,-3.3253,-3.3253,-3.3254]},{"header":{"parameterUnit":"m.s-1","parameterCategory":1,"la1":30.2991,"la2":30.254,"lo1":-89.0895,"lo2":-89.0444,"dy":0.0017,"dx":0.0017,"nx":28,"ny":28,"refTime":"2024-03-02T09:00:00:Z","depth":0,"parameterNumber":3,"parameterNumberName":"V-component_of_WINDS"},"data":[0,0,0,0,0,0,0,0,0,0,0,0,0,0,0,0,0,0,0,0,0,0,0,0,0,0,0,0,0,0,0,0,0,0,0,0,0,0,0,0,0,0,0,0,0,0,0,0,0,0,0,0,0,0,0,0,0,0,1.0457,1.0456,0,1.0422,1.0421,1.0421,1.0416,1.0416,1.0416,1.0417,1.0378,1.0377,1.0375,0,0,0,0,0,0,0,0,0,0,0,0,0,1.0516,1.0515,1.0457,1.0456,1.0456,1.0422,1.0421,1.0421,1.0416,1.0416,1.0417,1.0417,1.0378,1.0377,1.0375,0,0,0,0,0,0,0,0,0,0,0,0,0,1.0487,1.0515,1.0457,1.0449,1.0448,1.0422,1.0421,1.0421,1.0416,1.0416,1.0417,1.0417,1.0379,1.0377,1.0375,1.0353,0,0,1.0369,1.0368,0,0,0,0,0,0,0,0,1.0488,1.0485,1.0451,1.045,1.0448,1.0424,1.0428,1.0398,1.0416,1.0428,1.0417,1.0417,1.0393,1.039,1.0382,1.0351,1.035,1.0369,1.0368,1.0367,1.0366,0,0,0,0,0,0,0,1.0491,1.0486,1.0443,1.045,1.0449,1.0447,1.0443,1.0423,1.0408,1.0427,1.0426,1.0423,1.0392,1.0384,1.0381,1.0349,1.0369,1.0367,1.0366,1.0365,1.03,1.03,0,0,0,0,0,0,1.0494,1.0488,1.0444,1.0442,1.047,1.0445,1.0441,1.0431,1.0408,1.0405,1.0422,1.0422,1.0387,1.0383,1.038,1.0353,1.0367,1.0365,1.0364,1.0301,1.03,1.0299,0,0,0,0,0,0,1.0496,1.049,1.0445,1.0465,1.0459,1.0444,1.0432,1.043,1.0422,1.0405,1.0402,1.0417,1.0387,1.0382,1.036,1.0352,1.0364,1.0362,1.0301,1.03,1.03,1.03,0,0,0,0,0,0,1.0497,1.0491,1.0483,1.0465,1.0458,1.0427,1.0432,1.0429,1.0419,1.0419,1.0399,1.0396,1.0387,1.0363,1.0358,1.0349,1.0361,1.0302,1.0301,1.03,1.03,1.0299,1.0298,0,0,0,0,0,1.0499,1.0483,1.0482,1.0477,1.0447,1.0427,1.0423,1.0414,1.0418,1.041,1.0399,1.0396,1.0354,1.0361,1.0355,1.0346,1.0302,1.0301,1.03,1.0301,1.0299,1.0298,0,0,0,0,0,0,1.0499,1.0481,1.048,1.0457,1.0444,1.0426,1.0415,1.0413,1.0397,1.0397,1.0387,1.0382,1.0361,1.0351,1.036,1.0324,1.0328,1.0326,1.0331,1.0329,1.0328,1.0331,1.0359,0,0,0,0,0,1.0497,1.0483,1.0467,1.0448,1.0442,1.043,1.042,1.0415,1.04,1.0394,1.0382,1.0367,1.035,1.0339,1.0323,1.0299,1.0295,1.029,1.0288,1.0287,1.0285,1.0273,1.0271,1.0295,1.0295,1.0295,0,0,1.0491,1.0479,1.0471,1.0448,1.0437,1.0422,1.0425,1.0408,1.0397,1.0391,1.037,1.0361,1.0343,1.0321,1.031,1.0312,1.0278,1.0286,1.0285,1.0284,1.0272,1.0269,1.0267,1.0295,1.0295,1.0295,0,0,1.0474,1.0463,1.0447,1.0437,1.0421,1.0413,1.0409,1.0392,1.0386,1.0365,1.0361,1.0347,1.0318,1.0306,1.0296,1.0276,1.0273,1.0271,1.0264,1.0252,1.025,1.0248,1.0241,1.0239,1.0269,1.0269,1.0269,0,1.0468,1.0446,1.0439,1.0423,1.0414,1.041,1.0394,1.0383,1.0362,1.0355,1.0358,1.0323,1.0311,1.0286,1.0281,1.0273,1.0268,1.0273,1.0251,1.0249,1.0247,1.0241,1.0238,1.0268,1.0268,1.0268,1.0268,0,1.0441,1.0425,1.0414,1.0396,1.0385,1.0369,1.0359,1.0349,1.0345,1.0337,1.0316,1.0302,1.0283,1.0276,1.0272,1.0251,1.0253,1.0253,1.0258,1.0245,1.0239,1.0236,1.0268,1.0268,1.0268,1.0268,0,0,1.0421,1.04,1.0396,1.0388,1.0371,1.0359,1.0343,1.0326,1.0317,1.0303,1.0289,1.0266,1.0267,1.0256,1.025,1.024,1.0225,1.0241,1.0241,1.0239,1.0202,1.0202,1.0199,1.0223,1.0223,1.0222,1.0204,0,1.0401,1.0374,1.0368,1.0344,1.033,1.0327,1.0313,1.0301,1.0293,1.0279,1.027,1.0254,1.0256,1.025,1.0239,1.0229,1.0217,1.023,1.021,1.0209,1.0215,1.0196,1.0195,1.0178,1.0201,1.0201,1.02,0,1.0374,1.0362,1.0337,1.0323,1.0317,1.0305,1.0289,1.0277,1.0263,1.0258,1.0246,1.0242,1.0225,1.023,1.0207,1.0216,1.0207,1.0201,1.02,1.0198,1.0204,1.0193,1.0173,1.017,1.0196,1.0196,1.0197,0,1.0363,1.034,1.0322,1.0315,1.0298,1.029,1.0282,1.0269,1.026,1.0246,1.024,1.0223,1.0215,1.0202,1.0193,1.0198,1.0171,1.0175,1.0166,1.0166,1.016,1.016,1.0138,1.0154,1.0154,1.0154,1.0154,0,1.0342,1.0327,1.0317,1.0306,1.029,1.0283,1.0266,1.0258,1.0247,1.0234,1.023,1.0218,1.0207,1.0193,1.0186,1.0168,1.0164,1.0159,1.0158,1.016,1.016,1.0154,1.0155,1.0154,1.0154,1.0154,1.0154,0,1.0326,1.0319,1.03,1.0286,1.0282,1.0271,1.0259,1.0248,1.0241,1.0225,1.022,1.0209,1.0193,1.0183,1.0162,1.0157,1.0138,1.0136,1.0143,1.0142,1.0133,1.0134,1.0106,1.0102,1.0121,1.0121,1.012,0,1.0314,1.0302,1.0288,1.028,1.0273,1.026,1.0251,1.0243,1.0234,1.0218,1.0209,1.0193,1.018,1.0155,1.0144,1.0128,1.0126,1.0117,1.0124,1.0127,1.0127,1.0128,1.0127,1.0116,1.0116,1.0116,1.0116,0,1.0292,1.0289,1.0277,1.0264,1.0254,1.0242,1.0231,1.0224,1.0215,1.0205,1.0189,1.0179,1.0159,1.0143,1.0127,1.0118,1.0115,1.0114,1.0111,1.0113,1.0118,1.0116,1.014,1.0115,1.0115,1.0115,1.0115,1.0115,1.0277,1.0268,1.0257,1.0243,1.0235,1.0225,1.0215,1.0207,1.0194,1.0178,1.0174,1.0158,1.0145,1.0123,1.0114,1.0101,1.0102,1.0098,1.0097,1.0096,1.0096,1.012,1.0098,1.0098,1.0098,1.0098,1.0098,0,1.0256,1.0249,1.0237,1.0223,1.0212,1.0212,1.02,1.0191,1.0177,1.0166,1.0154,1.0136,1.0121,1.011,1.0095,1.0086,1.0085,1.0082,1.0083,1.0081,1.0095,1.01,1.0084,1.0084,1.0084,1.0084,1.0084,1.0084,1.0243,1.0227,1.0224,1.0204,1.0196,1.0182,1.0175,1.0166,1.0157,1.0138,1.0126,1.012,1.0108,1.0092,1.0078,1.0075,1.007,1.0068,1.0065,1.0078,1.008,1.0081,1.0085,1.0067,1.0067,1.0051,1.0051,1.0051]}]]